Location: ????????
(55.6189°N, 38.3031°E)
Time: 14:12:34
(UTC+00:00)

RESURS DK-1 - Pass Details

Date: 15 November 2019
Orbit: 556 x 562 km, 69.9° (Epoch: 06 December)

Event Time Altitude Azimuth Distance (km) Brightness Sun altitude
Exits shadow 03:10:54 10° 338° (NNW) 1,875 4.7 -15.1°
Reaches altitude 10° 03:10:57 10° 338° (NNW) 1,859 4.7 -15.1°
Maximum altitude 03:14:23 24° 34° (NE) 1,179 4.2 -14.7°
Drops below altitude 10° 03:17:48 10° 90° (E) 1,854 6.3 -14.2°
Sets 03:20:20 0° 104° (ESE) 2,748 7.9 -13.8°
